• In Colombia
  • List of Countries
  • For 7 days
  • Water Temperature
  • Weather Map
  • Weather Widgets
  • user-avatar
    Login

    Hourly Weather Plzen

    Today, 13 December, Friday

    Time Temperature Precipitation Wind Pressure Humidity
    00:00 +1°C° 0 mm 1 mps 719 mmHg 92%
    01:00 0°C° 0 mm 1 mps 718 mmHg 92%
    02:00 0°C° 0 mm 1 mps 717 mmHg 92%
    03:00 0°C° 0 mm 1 mps 715 mmHg 92%
    04:00 -2°C° 0 mm 2 mps 714 mmHg 93%
    05:00 -2°C° 0 mm 2 mps 713 mmHg 93%
    06:00 -2°C° 0 mm 2 mps 712 mmHg 93%
    07:00 -2°C° 0 mm 2 mps 712 mmHg 93%
    08:00 -2°C° 0 mm 3 mps 711 mmHg 90%
    09:00 -1°C° 0 mm 3 mps 710 mmHg 87%
    10:00 -1°C° 0 mm 3 mps 709 mmHg 83%
    11:00 0°C° 0 mm 3 mps 709 mmHg 80%
    12:00 +2°C° 0 mm 2 mps 709 mmHg 76%
    13:00 +2°C° 0 mm 2 mps 708 mmHg 73%
    14:00 +2°C° 0.3 mm 2 mps 709 mmHg 80%
    15:00 +1°C° 0.3 mm 2 mps 709 mmHg 88%
    16:00 0°C° 0.3 mm 3 mps 710 mmHg 95%
    17:00 0°C° 0.1 mm 3 mps 710 mmHg 95%
    18:00 0°C° 0.1 mm 4 mps 711 mmHg 95%
    19:00 +1°C° 0.1 mm 5 mps 711 mmHg 95%
    20:00 +1°C° 0 mm 5 mps 712 mmHg 93%
    21:00 +1°C° 0 mm 5 mps 712 mmHg 91%
    22:00 +1°C° 0 mm 5 mps 713 mmHg 90%
    23:00 +1°C° 0.1 mm 6 mps 713 mmHg 92%

    Tomorrow, 14 December, Saturday

    Time Temperature Precipitation Wind Pressure Humidity
    00:00 +1°C° 0.1 mm 6 mps 714 mmHg 94%
    01:00 +1°C° 0.1 mm 6 mps 714 mmHg 96%
    02:00 0°C° 0.1 mm 7 mps 715 mmHg 92%
    03:00 0°C° 0.1 mm 7 mps 715 mmHg 88%
    04:00 +2°C° 0.1 mm 7 mps 716 mmHg 84%
    05:00 +1°C° 0 mm 6 mps 716 mmHg 84%
    06:00 +1°C° 0 mm 5 mps 717 mmHg 84%
    07:00 0°C° 0 mm 5 mps 717 mmHg 83%
    08:00 -1°C° 0.2 mm 6 mps 717 mmHg 86%
    09:00 -1°C° 0.2 mm 7 mps 717 mmHg 89%
    10:00 -1°C° 0.2 mm 8 mps 717 mmHg 91%
    11:00 +1°C° 0.5 mm 9 mps 717 mmHg 88%
    12:00 +2°C° 0.5 mm 9 mps 718 mmHg 84%
    13:00 +3°C° 0.5 mm 10 mps 718 mmHg 80%
    14:00 +3°C° 0 mm 9 mps 720 mmHg 78%
    15:00 +2°C° 0 mm 8 mps 721 mmHg 76%
    16:00 +3°C° 0 mm 7 mps 722 mmHg 74%
    17:00 +3°C° 0 mm 7 mps 722 mmHg 77%
    18:00 +3°C° 0 mm 6 mps 723 mmHg 80%
    19:00 +2°C° 0 mm 6 mps 723 mmHg 83%
    20:00 +3°C° 0 mm 6 mps 723 mmHg 83%
    21:00 +3°C° 0 mm 6 mps 724 mmHg 83%
    22:00 +3°C° 0 mm 6 mps 724 mmHg 84%
    23:00 +3°C° 0 mm 5 mps 725 mmHg 85%

    Day after tomorrow, 15 December, Sunday

    Time Temperature Precipitation Wind Pressure Humidity
    00:00 +4°C° 0 mm 4 mps 725 mmHg 87%
    01:00 +3°C° 0 mm 4 mps 726 mmHg 89%
    02:00 +4°C° 0.1 mm 3 mps 726 mmHg 90%
    03:00 +4°C° 0.1 mm 3 mps 725 mmHg 91%
    04:00 +5°C° 0.1 mm 2 mps 725 mmHg 92%
    05:00 +5°C° 0.2 mm 3 mps 725 mmHg 91%
    06:00 +5°C° 0.2 mm 4 mps 725 mmHg 91%
    07:00 +6°C° 0.2 mm 4 mps 725 mmHg 90%
    08:00 +7°C° 0.2 mm 5 mps 725 mmHg 87%
    09:00 +7°C° 0.2 mm 6 mps 725 mmHg 84%
    10:00 +6°C° 0.2 mm 7 mps 726 mmHg 81%
    11:00 +8°C° 0.1 mm 7 mps 726 mmHg 80%
    12:00 +9°C° 0.1 mm 7 mps 727 mmHg 78%
    13:00 +9°C° 0.1 mm 7 mps 727 mmHg 76%
    14:00 +9°C° 0.1 mm 6 mps 728 mmHg 80%
    15:00 +8°C° 0.1 mm 5 mps 729 mmHg 84%
    16:00 +7°C° 0.1 mm 4 mps 729 mmHg 87%
    17:00 +7°C° 0 mm 3 mps 729 mmHg 88%
    18:00 +7°C° 0 mm 2 mps 730 mmHg 89%
    19:00 +6°C° 0 mm 2 mps 730 mmHg 89%
    20:00 +6°C° 0.2 mm 2 mps 731 mmHg 90%
    21:00 +6°C° 0.2 mm 2 mps 731 mmHg 90%
    22:00 +6°C° 0.2 mm 2 mps 731 mmHg 90%
    23:00 +6°C° 0.1 mm 2 mps 731 mmHg 91%

    16 December, Monday

    Time Temperature Precipitation Wind Pressure Humidity
    00:00 +7°C° 0.1 mm 1 mps 731 mmHg 92%
    01:00 +7°C° 0.1 mm 1 mps 731 mmHg 92%
    02:00 +7°C° 0 mm 1 mps 731 mmHg 92%
    03:00 +7°C° 0 mm 1 mps 731 mmHg 92%
    04:00 +7°C° 0 mm 1 mps 731 mmHg 92%
    05:00 +7°C° 0 mm 1 mps 731 mmHg 91%
    06:00 +7°C° 0 mm 1 mps 731 mmHg 90%
    07:00 +7°C° 0 mm 1 mps 731 mmHg 89%
    08:00 +7°C° 0 mm 1 mps 731 mmHg 87%
    09:00 +7°C° 0 mm 1 mps 731 mmHg 85%
    10:00 +8°C° 0 mm 1 mps 731 mmHg 83%
    11:00 +8°C° 0 mm 1 mps 731 mmHg 80%
    12:00 +9°C° 0 mm 1 mps 731 mmHg 77%
    13:00 +10°C° 0 mm 1 mps 731 mmHg 74%
    14:00 +9°C° 0 mm 1 mps 731 mmHg 77%
    15:00 +8°C° 0 mm 1 mps 730 mmHg 79%
    16:00 +7°C° 0 mm 1 mps 730 mmHg 82%
    17:00 +7°C° 0 mm 1 mps 730 mmHg 84%
    18:00 +6°C° 0 mm 1 mps 730 mmHg 86%
    19:00 +5°C° 0 mm 2 mps 730 mmHg 88%
    20:00 +4°C° 0 mm 2 mps 730 mmHg 90%
    21:00 +5°C° 0 mm 1 mps 730 mmHg 91%
    22:00 +4°C° 0 mm 1 mps 730 mmHg 93%
    23:00 +4°C° 0 mm 1 mps 729 mmHg 94%

    17 December, Tuesday

    Time Temperature Precipitation Wind Pressure Humidity
    00:00 +4°C° 0 mm 1 mps 729 mmHg 94%
    01:00 +3°C° 0 mm 1 mps 729 mmHg 95%
    02:00 +3°C° 0 mm 1 mps 729 mmHg 95%
    03:00 +3°C° 0 mm 1 mps 729 mmHg 95%
    04:00 +3°C° 0 mm 1 mps 729 mmHg 96%
    05:00 +3°C° 0 mm 1 mps 729 mmHg 96%
    06:00 +2°C° 0 mm 0 mps 729 mmHg 96%
    07:00 +2°C° 0 mm 0 mps 729 mmHg 96%
    08:00 +3°C° 0 mm 0 mps 729 mmHg 94%
    09:00 +3°C° 0 mm 0 mps 729 mmHg 93%
    10:00 +4°C° 0 mm 0 mps 730 mmHg 91%
    11:00 +4°C° 0 mm 0 mps 729 mmHg 89%
    12:00 +5°C° 0 mm 0 mps 729 mmHg 87%
    13:00 +6°C° 0 mm 1 mps 729 mmHg 84%
    14:00 +6°C° 0 mm 1 mps 729 mmHg 87%
    15:00 +4°C° 0 mm 0 mps 729 mmHg 90%
    16:00 +4°C° 0 mm 0 mps 729 mmHg 92%
    17:00 +3°C° 0 mm 0 mps 729 mmHg 93%
    18:00 +3°C° 0 mm 0 mps 729 mmHg 93%
    19:00 +3°C° 0 mm 0 mps 729 mmHg 93%
    20:00 +3°C° 0 mm 0 mps 729 mmHg 93%
    21:00 +3°C° 0 mm 0 mps 729 mmHg 92%
    22:00 +3°C° 0 mm 0 mps 729 mmHg 92%
    23:00 +3°C° 0 mm 0 mps 729 mmHg 91%

    18 December, Wednesday

    Time Temperature Precipitation Wind Pressure Humidity
    00:00 +3°C° 0 mm 0 mps 729 mmHg 91%
    01:00 +3°C° 0 mm 0 mps 729 mmHg 90%
    02:00 +3°C° 0 mm 0 mps 729 mmHg 90%
    03:00 +3°C° 0 mm 0 mps 729 mmHg 89%
    04:00 +3°C° 0 mm 0 mps 729 mmHg 89%
    05:00 +3°C° 0 mm 0 mps 730 mmHg 88%
    06:00 +3°C° 0 mm 0 mps 730 mmHg 88%
    07:00 +3°C° 0 mm 0 mps 730 mmHg 88%
    08:00 +3°C° 0 mm 0 mps 730 mmHg 86%
    09:00 +4°C° 0 mm 0 mps 730 mmHg 84%
    10:00 +5°C° 0 mm 0 mps 731 mmHg 82%
    11:00 +6°C° 0 mm 0 mps 730 mmHg 79%
    12:00 +7°C° 0 mm 0 mps 730 mmHg 76%
    13:00 +8°C° 0 mm 0 mps 730 mmHg 74%
    14:00 +7°C° 0 mm 0 mps 730 mmHg 77%
    15:00 +6°C° 0 mm 0 mps 730 mmHg 81%
    16:00 +5°C° 0 mm 0 mps 730 mmHg 84%
    17:00 +5°C° 0 mm 0 mps 730 mmHg 85%
    18:00 +5°C° 0 mm 0 mps 730 mmHg 85%
    19:00 +5°C° 0 mm 0 mps 731 mmHg 86%
    20:00 +5°C° 0 mm 1 mps 731 mmHg 87%
    21:00 +5°C° 0 mm 1 mps 731 mmHg 88%
    22:00 +5°C° 0 mm 1 mps 731 mmHg 90%
    23:00 +5°C° 0 mm 1 mps 730 mmHg 90%
    Show more